CAPE
0 0 0 0 0 58 139 98 209 620 704 631 1399 1890 1950 1658 1704 1933 2060 2308 2435 2333 1957 1477 1285 1304 1151 835 516 522 325 209 40 465 285 53 106 50 24 93 225 355 240
0 0 0 0 0 1 114 169 210 371 635 781 1218 1574 1465 1330 1898 2276 2390 2147 2272 2188 1368 1227 1100 1150 1134 802 593 413 276 159 91 225 272 3 12 177 102 27 32 149 296
0 0 0 0 0 0 120 369 218 331 546 828 1101 1365 1257 1309 1987 2187 2142 2126 2181 1947 1325 1164 1167 1133 1060 648 547 372 265 271 276 212 349 3 71 269 47 5 8 32 59
0 0 0 0 0 0 186 558 245 428 553 894 1222 1437 1310 1512 1893 1995 2074 2092 1950 1542 1277 1084 1181 1036 814 632 496 323 256 328 252 232 266 21 37 56 60 5 2 16 14
0 0 0 0 0 0 186 616 211 613 825 1279 1545 1410 1367 1662 1849 1962 1963 2090 1942 1404 1098 1070 1016 738 490 470 302 324 351 363 222 143 142 113 76 21 51 21 0 2 4
0 0 1 0 0 0 256 501 419 993 1483 1680 1595 1420 1713 1675 1546 1854 2048 2062 1425 1246 1014 863 660 284 145 106 84 64 376 329 287 166 166 143 71 35 92 29 31 6 6
0 0 0 0 1 0 328 357 721 1641 1996 1851 1741 1655 2096 1778 1509 1627 1613 1663 1440 1291 923 750 516 207 110 101 0 0 0 0 11 282 172 170 95 101 11 86 25 19 12
0 0 1 3 1 0 563 439 1389 2058 2171 2172 2121 2135 2269 1895 1146 1171 1058 1457 1257 992 823 613 471 322 296 358 249 82 81 41 0 22 100 92 88 192 12 31 7 10 13
0 0 0 19 0 0 707 1035 1944 2085 2249 2346 2270 2302 2254 1252 767 629 875 1148 687 581 451 547 513 398 266 57 216 118 181 60 0 0 1 0 9 2 5 12 1 2 5
0 0 0 0 13 1 1092 1703 1950 1845 2073 2274 2268 2271 2340 1082 181 597 723 329 428 328 463 473 80 305 0 0 79 77 27 8 2 0 0 0 0 0 0 19 0 0 1
0 0 1 0 4 470 1173 1287 1391 1741 1967 2052 2043 1814 1100 672 149 348 125 216 228 237 280 377 152 0 0 0 0 65 70 3 0 1 1 2 4 2 3 16 0 0 0
0 0 0 0 313 1027 1439 1527 1545 1415 1241 1128 769 769 456 261 72 1 45 125 240 318 288 201 88 0 0 0 0 0 0 0 3 2 1 1 1 1 2 8 92 68 16
2 16 12 187 809 886 1084 1031 1108 1019 781 620 736 343 227 123 2 0 0 71 26 318 213 8 0 0 0 0 0 0 0 2 3 1 2 1 2 1 1 1 12 2 2
3 0 196 556 638 509 593 716 754 719 731 705 374 119 52 43 1 1 0 0 0 0 0 0 0 0 1 1 0 0 2 5 2 23 3 1 4 4 2 4 14 6 5
0 12 35 453 407 263 176 266 415 481 381 230 148 110 158 217 57 5 0 0 3 1 0 1 1 0 0 1 2 4 23 17 16 13 18 8 5 4 17 30 17 20 18
1 9 188 84 36 31 25 2 0 16 15 27 54 118 96 25 0 0 0 0 0 0 0 1 1 1 1 0 5 30 21 13 18 20 14 14 4 3 4 2 1 25 25
6 12 16 39 60 24 17 24 3 0 0 0 0 0 0 0 0 0 0 0 0 0 19 3 0 1 1 6 5 13 21 11 16 19 5 3 2 2 0 19 27 30 34
0 6 16 35 58 105 44 13 19 30 4 0 0 0 0 0 0 0 0 0 0 3 7 3 0 3 2 26 11 29 25 11 11 4 5 3 3 2 4 2 22 1 0
6 19 33 88 98 159 150 187 183 115 27 0 0 0 0 0 0 0 0 4 3 6 3 3 2 3 2 4 17 29 20 12 11 4 8 10 6 1 1 3 10 2 3
15 44 16 143 161 182 205 161 119 32 0 1 2 1 1 2 1 2 2 3 4 2 1 3 1 1 30 31 20 7 10 0 2 6 4 3 0 0 6 1 3 0 2
8 31 47 123 169 159 129 117 52 20 11 7 3 0 0 2 6 6 2 5 4 1 1 1 9 49 32 27 2 3 0 18 22 15 20 16 7 2 4 6 1 3 10
74 86 103 117 104 74 102 115 67 20 10 1 3 0 0 14 21 23 7 2 4 7 4 1 6 16 39 24 5 17 26 27 15 15 12 6 2 5 7 5 6 9 12
97 63 88 79 110 3 52 87 58 28 4 2 1 0 11 16 6 2 1 3 1 0 0 0 0 0 38 42 34 32 26 27 13 5 7 2 6 18 11 0 4 4 12
192 125 115 35 32 8 1 2 0 1 1 3 1 1 2 0 4 3 4 4 5 3 2 0 0 0 0 0 0 0 1 1 3 2 7 7 5 0 0 1 2 3 1
144 101 67 1 2 2 4 4 4 4 3 2 1 0 1 4 6 8 6 2 2 1 2 2 0 0 0 0 0 0 0 0 7 1 2 0 0 0 0 0 0 0 0
196 27 0 1 1 4 3 4 2 2 1 1 1 4 4 6 8 5 7 4 2 3 8 10 6 8 3 3 1 0 0 0 0 0 0 0 0 0 0 0 0 0 0
CIN
-0 -0 -0 -0 -0 -165 -154 -311 -293 -240 -283 -296 -203 -184 -201 -193 -149 -129 -70 -42 -57 -13 -3 -3 -7 -13 -1 -7 -30 -13 -8 -1 -34 -4 -2 -52 -21 -16 -5 -8 -8 -0 -14
-0 -0 -0 -0 -0 -1 -140 -230 -274 -230 -246 -240 -179 -181 -178 -165 -126 -87 -53 -63 -38 -2 -25 -17 -17 -14 -0 -3 -9 -8 -1 -2 -10 -3 -7 -0 -10 -0 -1 -5 -12 -4 -0
-0 -0 -0 -0 -0 -1 -120 -132 -238 -218 -226 -214 -172 -144 -141 -133 -96 -66 -81 -48 -5 -1 -16 -17 -12 -1 -1 -7 -2 -3 -2 -2 -2 -2 -1 -1 -7 -0 -0 -0 -6 -4 -19
-0 -0 -0 -0 -0 -0 -53 -57 -216 -222 -217 -195 -149 -126 -110 -90 -82 -83 -60 -11 -1 -5 -16 -29 -2 -1 -1 -2 -1 -1 -1 -1 -1 -1 -1 -2 -12 -5 -0 -0 -0 -11 -30
-0 -0 -0 -0 -0 -0 -105 -52 -240 -220 -185 -126 -106 -97 -95 -99 -93 -74 -28 -1 -0 -8 -25 -20 -2 -2 -13 -3 -1 -1 -2 -1 -1 -0 -1 -6 -13 -38 -1 -3 -0 -39 -2
-0 -0 -2 -2 -0 -0 -119 -84 -197 -136 -82 -74 -92 -109 -116 -100 -107 -82 -13 -0 -14 -3 -19 -24 -19 -73 -86 -44 -36 -45 -3 -1 -1 -1 -2 -4 -15 -39 -0 -1 -3 -43 -0
-0 -0 -2 -0 -0 -0 -127 -124 -129 -52 -52 -79 -110 -113 -100 -80 -151 -91 -35 -2 -1 -1 -17 -7 -15 -48 -55 -27 -0 -0 -0 -0 -13 -3 -0 -3 -2 -11 -37 -0 -8 -20 -12
-0 -0 -1 -0 -0 -0 -36 -97 -45 -23 -46 -75 -110 -108 -71 -90 -195 -120 -60 -1 -3 -10 -2 -6 -2 -7 -6 -0 -1 -12 -3 -7 -0 -3 -2 -3 -2 -2 -23 -7 -17 -5 -7
-0 -0 -0 -295 -0 -0 -16 -35 -14 -31 -53 -52 -81 -78 -72 -208 -226 -167 -35 -2 -15 -10 -19 -1 -1 -1 -7 -35 -1 -2 -1 -2 -0 -0 -4 -3 -22 -11 -36 -21 -0 -1 -10
-0 -0 -0 -0 -72 -0 -6 -8 -33 -81 -98 -70 -52 -47 -41 -183 -332 -113 -38 -68 -22 -35 -13 -1 -58 -4 -0 -0 -7 -1 -10 -8 -0 -0 -0 -0 -0 -0 -0 -3 -0 -0 -0
-0 -0 -0 -0 -18 -76 -14 -45 -80 -62 -74 -60 -53 -51 -144 -202 -280 -127 -133 -43 -57 -37 -13 -1 -10 -0 -0 -0 -0 -5 -2 -0 -0 -0 -0 -0 -14 -2 -10 -11 -0 -0 -0
-0 -0 -0 -0 -53 -3 -5 -16 -45 -96 -145 -140 -189 -152 -187 -214 -278 -40 -151 -75 -43 -4 -1 -2 -7 -0 -0 -0 -0 -0 -0 -0 -0 -0 -0 -0 -0 -0 -2 -5 -0 -0 -3
-1 -9 -11 -30 -1 -8 -15 -68 -81 -99 -152 -181 -118 -173 -169 -188 -159 -0 -20 -89 -95 -2 -1 -2 -0 -0 -0 -0 -0 -0 -0 -30 -0 -0 -0 -0 -16 -0 -5 -1 -5 -21 -24
-0 -0 -12 -3 -25 -70 -80 -96 -107 -97 -75 -66 -126 -177 -203 -157 -0 -0 -0 -0 -0 -0 -0 -0 -0 -0 -0 -0 -0 -0 -0 -39 -5 -6 -0 -0 -0 -0 -0 -1 -1 -7 -16
-0 -70 -93 -11 -41 -91 -144 -117 -98 -83 -155 -158 -125 -119 -73 -53 -108 -75 -0 -0 -1 -0 -0 -0 -0 -0 -0 -0 -0 -39 -11 -24 -22 -7 -13 -0 -0 -0 -0 -0 -1 -1 -1
-0 -118 -27 -119 -194 -206 -195 -189 -0 -49 -52 -126 -71 -45 -25 -10 -0 -0 -0 -0 -0 -0 -8 -0 -0 -0 -0 -0 -25 -3 -17 -25 -34 -1 -0 -0 -1 -0 -10 -0 -6 -1 -1
-0 -126 -114 -102 -103 -126 -114 -140 -142 -0 -0 -0 -0 -0 -0 -0 -0 -0 -0 -0 -0 -0 -0 -0 -0 -0 -0 -13 -37 -15 -17 -36 -17 -0 -3 -0 -0 -0 -0 -3 -1 -1 -0
-0 -0 -68 -61 -28 -17 -27 -89 -52 -72 -44 -0 -0 -0 -0 -0 -0 -0 -0 -0 -0 -2 -0 -0 -0 -0 -0 -0 -11 -1 -2 -1 -2 -2 -0 -0 -0 -0 -0 -0 -0 -1 -4
-0 -15 -24 -4 -7 -5 -2 -0 -1 -1 -45 -0 -0 -0 -0 -0 -0 -0 -0 -1 -0 -1 -8 -0 -0 -0 -0 -13 -3 -1 -2 -1 -4 -0 -0 -0 -0 -0 -0 -5 -3 -3 -1
-53 -27 -59 -9 -2 -1 -0 -1 -0 -30 -0 -1 -0 -0 -0 -0 -0 -0 -0 -0 -0 -0 -0 -0 -0 -0 -1 -1 -2 -7 -2 -0 -1 -3 -1 -4 -0 -0 -0 -0 -0 -0 -0
-14 -4 -13 -1 -2 -2 -2 -2 -9 -9 -1 -0 -0 -0 -0 -2 -0 -0 -1 -2 -6 -10 -0 -0 -17 -0 -1 -2 -23 -22 -0 -1 -1 -1 -1 -0 -1 -0 -1 -0 -0 -0 -4
-3 -3 -1 -1 -1 -1 -3 -1 -1 -1 -1 -0 -0 -0 -0 -1 -1 -0 -5 -0 -0 -4 -0 -0 -1 -4 -0 -2 -7 -2 -1 -1 -2 -1 -2 -1 -1 -0 -2 -1 -3 -0 -3
-4 -3 -1 -1 -1 -14 -5 -0 -0 -1 -1 -0 -0 -0 -2 -0 -0 -0 -0 -0 -0 -0 -0 -0 -0 -0 -1 -1 -1 -0 -1 -1 -3 -2 -1 -0 -1 -1 -1 -0 -1 -2 -1
-1 -1 -2 -4 -4 -4 -0 -0 -0 -2 -0 -0 -0 -0 -0 -0 -0 -0 -0 -0 -0 -0 -0 -0 -0 -0 -0 -0 -1 -0 -2 -1 -3 -6 -0 -0 -8 -0 -0 -4 -0 -1 -0
-2 -3 -5 -0 -0 -0 -0 -0 -0 -0 -0 -0 -0 -0 -0 -0 -0 -0 -0 -0 -0 -0 -0 -0 -0 -0 -0 -0 -0 -0 -0 -0 -0 -3 -0 -0 -0 -0 -0 -0 -0 -0 -0
-1 -20 -0 -0 -0 -0 -0 -0 -0 -0 -0 -0 -0 -0 -0 -0 -0 -0 -0 -0 -0 -0 -0 -0 -0 -0 -0 -0 -0 -0 -0 -0 -0 -0 -0 -0 -0 -0 -0 -0 -0 -0 -0
Wind_Speed
43 43 45 46 47 48 49 48 45 40 37 33 30 25 22 21 19 16 15 14 14 13 12 9 7 6 8 8 11 10 11 9 9 11 13 13 11 10 12 12 12 11 9
42 43 45 45 47 49 50 50 46 40 35 31 27 23 21 19 17 15 15 15 14 12 9 8 7 7 7 10 11 10 9 9 10 11 12 13 12 10 10 12 12 13 15
47 46 46 46 47 48 50 49 45 38 32 29 27 22 19 17 16 16 14 16 14 10 8 8 7 7 7 9 10 8 7 8 9 11 11 11 13 11 11 13 12 12 11
48 49 49 49 48 48 49 47 43 38 32 28 23 21 18 16 15 13 14 15 12 10 8 7 7 6 8 9 9 7 7 8 10 10 11 11 12 11 9 10 12 11 9
50 51 50 50 49 48 48 44 40 35 29 24 21 19 16 14 13 12 13 12 11 10 8 8 7 7 9 9 7 5 7 7 8 9 10 11 11 10 6 8 8 7 9
52 52 50 49 49 48 47 42 38 33 27 23 21 18 16 14 13 12 11 10 10 8 8 8 7 9 9 8 7 12 9 9 10 12 10 9 10 7 7 5 5 5 12
51 50 49 48 48 46 45 41 37 32 27 24 20 17 15 13 11 11 9 9 8 7 6 6 7 7 6 5 6 8 11 13 15 15 14 11 7 4 5 8 5 4 13
45 45 44 45 45 43 44 41 35 30 28 24 20 17 14 12 10 10 9 8 7 6 5 5 5 5 3 3 5 7 8 10 11 12 14 13 10 5 5 12 10 11 10
41 40 43 42 41 43 44 40 34 30 27 24 19 16 14 12 11 10 9 7 6 5 5 4 3 3 3 4 7 7 10 12 14 12 11 12 11 5 8 9 10 10 11
38 40 41 42 42 43 44 36 31 28 25 21 18 14 13 11 12 13 9 6 5 4 3 4 7 5 3 3 6 9 10 10 9 9 10 7 9 9 8 11 7 10 12
36 36 36 41 44 42 35 32 29 26 21 19 16 14 12 11 13 14 9 5 4 3 3 4 4 5 4 2 6 9 9 9 7 6 6 7 5 7 12 14 10 7 11
35 35 40 45 41 32 29 26 24 22 19 17 15 12 11 12 13 12 9 8 3 3 4 3 5 3 4 3 5 7 8 6 4 5 5 6 7 6 15 18 12 13 17
31 27 23 11 21 24 23 22 21 20 19 16 14 13 13 12 11 9 7 4 5 6 4 4 4 4 4 4 4 5 6 5 4 4 5 7 7 9 14 16 15 15 16
27 23 21 19 18 21 22 21 20 19 17 16 15 15 12 12 10 8 6 5 4 5 4 5 5 5 6 6 6 6 6 5 4 5 5 5 4 8 8 12 13 10 13
25 23 23 21 21 19 18 20 20 18 17 17 15 13 12 12 9 6 5 3 1 1 4 4 4 4 6 7 6 8 7 6 7 5 5 5 3 6 10 10 13 9 12
25 24 24 21 19 16 14 14 12 14 15 15 13 11 10 6 8 7 3 2 2 5 4 4 3 5 7 7 6 5 5 5 6 6 6 4 6 6 7 12 18 18 16
26 22 21 19 17 15 13 15 16 11 9 7 8 7 6 7 9 8 5 4 6 2 5 4 4 6 7 7 1 3 5 7 6 5 4 6 5 6 7 13 16 17 13
28 23 20 17 14 20 14 16 14 17 12 11 9 6 6 9 9 7 6 3 2 10 6 4 4 6 7 5 3 6 5 6 5 6 5 4 4 4 4 3 5 9 10
31 21 15 15 12 17 20 21 17 13 9 8 7 4 4 6 6 7 4 3 5 6 5 4 5 7 5 2 5 6 5 6 6 5 6 7 7 7 11 16 13 14 10
31 18 12 12 11 12 18 16 12 9 8 7 6 6 5 5 2 1 6 5 7 6 3 4 5 4 5 2 2 8 8 6 5 5 5 7 9 13 15 10 12 12 13
32 13 13 16 20 15 14 12 9 8 8 7 8 8 6 2 1 2 2 4 5 3 3 4 5 5 1 6 4 6 6 6 6 7 5 7 9 12 11 15 20 25 25
36 43 36 27 19 16 12 10 9 9 8 9 6 4 6 1 2 3 3 6 7 3 3 3 2 3 3 2 2 5 8 8 7 7 8 8 7 7 8 12 20 22 16
37 35 23 20 20 11 8 8 9 9 9 8 9 7 3 2 2 3 4 5 5 5 4 2 2 5 10 10 8 8 7 8 5 6 6 7 7 8 12 14 16 19 11
27 19 19 13 9 8 8 7 6 6 10 9 7 9 3 2 3 3 3 4 4 5 5 4 7 10 12 11 9 10 9 9 9 9 11 12 13 14 14 12 11 12 9
16 15 11 7 7 6 7 6 6 7 9 7 6 2 2 1 1 2 2 2 4 3 3 5 8 9 11 11 12 13 12 10 10 11 11 12 12 12 11 13 12 14 13
13 8 6 6 6 6 7 8 8 9 9 8 5 3 4 3 1 1 1 2 4 4 3 2 3 5 6 7 8 7 7 8 9 11 10 10 12 11 13 12 13 14 15
Wind_Direction
287 282 279 276 275 272 268 265 264 266 264 260 258 256 256 254 252 254 264 272 285 292 297 285 276 293 301 315 318 325 328 332 334 351 349 352 359 5 353 355 346 336 324
289 285 280 278 275 273 269 263 262 262 261 255 252 252 250 246 248 249 259 277 283 281 277 273 277 294 294 311 316 323 326 329 331 334 350 345 353 4 3 356 349 330 303
285 283 278 277 277 273 269 263 259 259 258 251 250 246 242 240 245 250 265 278 275 267 258 263 273 280 293 308 313 323 324 325 330 333 345 348 351 353 355 344 339 328 322
284 281 276 273 275 273 269 261 255 254 254 247 238 238 234 236 240 249 270 272 267 263 259 263 272 273 299 306 311 316 322 324 327 330 338 341 348 350 355 342 330 323 311
282 278 275 271 271 270 267 258 251 250 246 235 228 228 229 232 242 251 265 263 261 260 254 268 279 294 304 307 311 311 316 318 321 326 330 336 338 339 344 342 337 339 308
279 275 271 269 268 265 263 250 244 242 236 224 220 221 224 238 243 248 256 256 254 247 252 267 290 299 305 307 306 320 319 315 315 319 321 325 325 326 324 329 345 330 271
276 273 268 264 262 260 258 241 237 233 226 221 220 221 227 241 231 242 243 249 238 244 249 263 286 299 300 304 310 313 312 313 316 316 315 315 315 314 296 282 300 307 275
271 267 263 260 255 254 248 232 229 224 220 220 220 222 228 242 225 219 214 234 241 242 254 273 279 293 278 305 320 314 317 321 319 319 317 310 306 299 270 270 275 281 293
266 265 259 255 250 248 235 225 222 220 220 221 221 222 227 242 204 195 199 224 236 251 277 284 279 294 311 309 318 320 321 325 328 332 333 310 292 292 260 268 269 269 275
260 260 252 242 248 236 223 218 217 216 216 220 222 222 225 220 195 185 205 207 227 263 288 305 309 319 327 317 322 322 324 332 337 325 322 315 287 269 262 273 281 268 271
263 246 235 245 231 223 213 214 213 211 211 217 221 227 226 205 194 178 190 218 236 249 289 309 323 320 336 340 327 332 335 342 354 342 321 305 298 276 264 270 281 282 271
257 237 239 228 215 206 201 202 205 206 207 211 218 226 229 209 186 186 216 267 271 284 305 336 327 347 348 356 346 352 3 54 29 337 334 308 284 281 257 256 273 282 265
243 235 240 221 187 197 199 200 203 208 212 214 215 207 199 200 203 207 229 245 282 302 343 348 352 3 359 17 20 44 80 55 32 354 327 314 298 277 260 262 270 273 274
247 240 220 214 206 207 209 210 211 213 210 200 191 188 194 201 207 214 233 257 286 318 6 11 352 7 6 17 24 83 82 69 58 19 12 331 342 273 276 271 272 286 285
251 245 235 220 216 211 215 218 214 211 196 182 189 194 186 205 210 193 188 191 179 10 42 3 352 22 44 48 78 88 83 69 87 56 36 67 51 287 274 276 272 289 291
239 233 223 218 213 210 211 203 203 196 187 196 196 199 215 184 158 161 185 233 117 107 9 2 24 78 85 94 89 61 29 18 16 51 51 329 292 295 291 280 263 268 282
225 231 217 212 207 197 186 175 169 178 166 168 185 168 186 155 142 140 137 123 118 6 333 355 61 97 107 105 341 351 21 336 336 358 28 300 315 312 297 277 270 272 288
220 220 210 202 199 193 188 185 176 190 179 191 217 211 140 129 130 129 126 114 310 289 317 352 74 96 115 106 284 293 341 17 347 330 333 349 15 344 14 350 331 307 304
207 211 193 193 189 193 187 188 190 186 183 187 184 184 143 122 120 118 118 285 286 293 317 3 78 102 116 95 277 299 331 331 345 340 329 321 319 317 293 277 293 293 307
202 197 190 182 152 168 188 188 184 176 162 149 142 135 130 118 144 186 273 278 283 290 336 43 88 91 109 89 291 288 301 328 347 357 355 333 310 289 281 306 300 304 308
195 183 177 195 191 185 185 181 175 154 137 126 123 118 116 103 106 287 319 296 295 312 64 83 82 86 93 283 291 287 304 332 336 318 355 340 315 303 308 293 270 243 244
179 169 182 189 190 188 185 176 139 129 121 118 128 167 236 348 60 46 358 290 302 330 76 74 352 66 299 343 334 302 294 305 315 323 313 327 351 22 360 312 275 273 310
174 178 185 187 192 177 170 143 127 122 122 133 120 111 49 46 334 344 297 304 302 284 288 325 336 281 261 268 287 293 308 302 345 353 353 345 18 7 333 319 312 300 338
178 180 184 180 149 141 135 146 150 158 125 131 156 217 45 291 287 313 325 313 286 286 285 291 264 258 255 259 275 280 287 298 311 311 305 312 316 320 320 337 349 339 4
174 178 179 150 128 134 128 136 156 147 135 135 138 180 234 214 109 2 3 350 17 9 312 268 256 253 256 262 265 267 274 295 318 321 327 331 328 329 346 342 355 359 357
176 173 152 123 123 142 158 153 150 155 164 171 171 165 170 164 138 85 39 21 28 28 26 328 312 309 297 293 300 318 330 340 351 12 351 348 350 349 334 355 1 358 354